Location: Archemont
(49.1579°N, 1.7598°E)
Time: 12:46:24
(UTC+00:00)

BlueWalker 3 - Pass Details

Date: 03 February 2023
Orbit: 497 x 515 km, 53.2° (Epoch: 25 March)

Event Time Altitude Azimuth Distance (km) Brightness Sun altitude
Rises 18:27:31 0° 280° (W) 2,601 7.1 -15.7°
Reaches altitude 10° 18:29:46 10° 287° (WNW) 1,721 5.7 -16.1°
Maximum altitude 18:33:31 45° 1° (N) 707 2.6 -16.7°
Enters shadow 18:34:49 32° 49° (NE) 893 2.7 -16.9°
